Showing default

SATELIOT_3, 60552

Orbit data source: Space-Track

SATELIOT_3, 60552 is a payload satellite owned by Sateliot (ES) in SSO that was launched on Fri, 16 Aug 2024 UTC via an FALCON 9 launch vehicle from the Air Force Western Test Range (AFWTR). Payload-class satellites include a variety of spacecraft equipped with specific instruments for various scientific and technological missions. These include communications satellites like Starlink; space stations such as the ISS; scientific satellites like the Hubble; Earth observation satellites from companies like Planet Labs, Umbra, and HawkEye 360; GPS; miniature CubeSats for education and research; and military/defense satellites.

Loading next visibility...
Identifier
60552, 2024-149CN
Orbit
SSO
Country
Flag of ESES / SPN
Related business
Manufacturer
Endurosat
Mission
Operational Commercial Communications
Bus & Motor
CUBESAT 6U, Unknown motor
Mass
7.407 kg wet, 7.407 kg dry
Launch date (UTC)
2024-08-16 (1 year ago)
Launch vehicle
FALCON 9
Launch site
Air Force Western Test Range (AFWTR)
Object type
Payload
Rocket body
Debris
Shape & HBR
Box + 2 Pan, 0.2 m
Radar Cross Section
0.092 m², Medium (>0.1 m² and < 1m²)

Expand to show TLE details & history
Last TLE update: 16 hours ago

TLE from 16 hours ago
0 SATELIOT_3
1 60552U 24149CN  26034.45404774  .00002382  00000-0  20938-3 0  9998
2 60552  97.6948 113.2444 0005426 160.5400 199.6030 14.97482106 80069
Epoch: 2026-02-03T10:53Z
TLE epoch observation values (Epoch: 2026-02-03T10:53:49.724Z)
Latitude
-0.00006°
Longitude
176.15247°
Altitude
581.285 km
Speed
7.568 km/s
True Right ascension
07h 32m 58s
True Declination
0° 00' 00"
Sunlit
Object was in full shadow at epoch
Visualization orbit readout
Latitude
Unknown
Longitude
Unknown
Altitude
Unknown
Speed
Unknown
Apparent Right ascension
Unknown
Apparent Declination
Unknown
Sunlit
N/A
Visualization observer readout
Local Sidereal Time
04:25:21
Azimuth
Unknown
Elevation
Unknown
Doppler factor
Unknown
Orbital elements
Apogee altitude
575.459 km
Perigee altitude
567.917 km
Semi-major axis
6,949.825 km
Eccentricity
0.00054
Inclination
97.6948°
RAAN
113.2444°
Arg. of periapsis
160.54°
True anomaly
199.58215°
Mean anomaly
199.603°
Eccentric anomaly
199.59258°
Mean motion
3.74613 °/min
Orbital period
96.1 mins
BSTAR
0.00020938
Loading maneuver chart data...
Computing Atmospheric mass density...
Loading historical data...
Loading historical data...
Loading historical data...
Loading historical data...
Loading historical data...
Loading historical data...
Loading historical data...

Documentation

Showing up to 5 results
|